Tracking 25701 objects as of 3-Jul-2022
HD Live streaming from Space Station
objects crossing your sky now

GEOS 2

Track GEOS 2 now!
GEOS 2 is classified as:


NORAD ID: 10981
Int'l Code: 1978-071A
Perigee: 36,043.6 km
Apogee: 36,046.2 km
Inclination: 9.1 °
Period: 1,448.9 minutes
Semi major axis: 42415 km
RCS: 2.0304 m2 (large)
Launch date: July 14, 1978
Source: European Space Agency (ESA)
Launch site: AIR FORCE EASTERN TEST RANGE (AFETR)
aabbcc
Your satellite tracking list
Your tracking list is empty




NASA's NSSDC Master Catalog

Two Line Element Set (TLE):
1 10981U 78071A   22183.59412876 -.00000244  00000-0  00000-0 0  9991
2 10981   9.1124 301.6044 0000301  11.0656 341.2030  0.99382530159624
Source of the keplerian elements: AFSPC